Simultaneous Nadir Overpasses (SNOs) Predictions

Prediction of SNOs between GOES-15 and TERRA Satellite Orbit:

Table of predicted SNOs for the next 14.0 days since TLE Epoch: 11/3/2012
Index Date Time (GOES-15) GOES-15 Lat,Lon TERRA Lat,Lon Distance(km) Time Diff (sec)
1 11/04/2012 19:30:40 -0.26,-134.91 -0.12,-135.60 77.80 80
2 11/06/2012 19:21:08 -0.25,-134.83 -0.75,-132.63 250.53 80
3 11/07/2012 07:42:31 0.23,-134.82 -0.41,-137.81 340.33 80
4 11/09/2012 07:30:19 0.24,-134.74 0.23,-134.85 12.90 80
5 11/11/2012 07:15:26 0.24,-134.64 0.82,-131.88 314.00 80
6 11/11/2012 19:39:21 -0.22,-134.61 0.30,-137.03 275.96 80
7 11/13/2012 19:27:08 -0.22,-134.50 -0.30,-134.06 50.01 80
8 11/15/2012 19:14:55 -0.22,-134.40 -0.91,-131.09 375.17 80
9 11/16/2012 07:36:19
